Wind_Speed
14 15 15 14 16 18 16 15 14 12 10 10 10 9 8 8 7 6 5 5 4 3 3 3 4 4 5 6 7 8 9 10 11 12 13 15 16 17 18 19 20 22
13 14 14 16 18 18 16 15 13 11 11 12 11 9 9 9 7 7 6 5 4 3 3 4 4 5 6 7 8 9 10 11 12 13 14 15 16 18 19 20 21 22
14 15 17 19 20 19 17 14 12 13 14 13 11 10 10 9 8 7 6 5 4 4 4 5 5 6 7 8 9 10 11 11 12 13 14 16 17 18 19 20 22 23
14 18 21 21 21 19 16 14 14 15 14 12 11 11 10 9 8 8 6 5 5 5 5 6 6 7 8 9 9 10 11 12 12 13 15 16 17 18 19 21 21 22
17 21 23 22 21 19 17 16 17 15 13 11 11 11 10 9 9 8 7 6 6 6 6 6 7 8 9 9 10 10 11 12 13 14 15 16 17 18 19 20 21 21
20 23 23 22 21 20 18 18 16 13 12 11 10 10 10 9 8 8 8 7 7 7 6 7 8 9 9 10 10 11 11 12 13 14 14 15 16 18 19 20 20 21
22 24 24 24 22 20 19 17 13 11 11 11 10 10 9 9 9 8 8 8 8 7 7 8 8 9 9 9 10 11 11 11 12 13 14 15 16 18 19 19 19 20
23 25 25 24 23 20 18 15 12 11 10 10 10 10 10 10 10 9 9 9 8 8 8 8 8 9 9 9 10 10 10 11 12 12 13 15 16 17 18 18 18 18
24 24 24 24 22 19 17 14 12 10 10 9 10 10 11 12 11 11 10 9 9 8 8 8 8 8 9 9 9 10 10 10 11 12 13 14 16 16 17 17 17 18
24 24 23 23 22 19 16 14 12 11 11 10 10 11 12 12 13 12 11 10 9 9 8 8 8 8 9 9 9 9 9 9 10 11 12 14 15 16 16 16 17 17
23 24 23 23 23 20 16 14 12 12 12 12 12 12 12 13 13 12 11 10 10 9 8 8 8 8 8 8 8 8 8 8 9 10 12 13 14 15 15 15 16 17
22 23 22 23 23 21 18 14 13 13 13 13 13 13 13 13 13 12 11 11 10 9 9 8 8 8 8 7 7 7 7 8 9 10 11 13 13 13 14 14 15 15
22 22 22 22 22 22 21 17 15 14 14 14 14 14 14 14 13 12 12 12 11 10 9 8 8 7 7 6 6 6 6 7 8 10 11 12 12 12 12 13 13 14
21 22 22 21 21 22 22 20 18 16 16 16 16 15 15 14 13 13 13 12 11 10 9 8 7 7 6 6 6 6 6 7 8 9 10 10 10 11 11 11 12 13
19 21 22 21 21 21 21 20 19 18 17 18 17 16 16 15 14 14 13 12 11 10 9 7 7 7 6 6 6 5 5 6 7 9 9 9 9 10 10 11 11 12
18 21 21 21 20 20 20 20 19 19 19 19 18 17 17 16 15 14 13 12 11 9 8 7 7 7 7 6 6 5 5 6 7 8 8 8 8 9 9 10 11 11
19 21 21 21 21 20 20 20 20 20 20 19 19 18 18 17 16 14 13 12 10 9 8 7 7 7 7 6 6 5 4 5 6 7 7 7 8 9 9 9 10 11
20 21 22 21 21 21 21 21 21 20 20 20 19 19 18 17 16 14 13 12 10 9 8 8 8 8 8 7 5 4 4 5 6 6 6 6 7 8 8 8 9 10
22 23 23 23 22 22 22 22 21 21 21 21 21 20 19 17 16 14 13 12 11 9 9 9 9 9 8 6 5 4 4 5 5 5 5 6 6 6 6 7 8 9
23 24 24 24 23 23 23 22 22 22 21 21 21 20 19 17 16 15 14 12 11 10 10 10 10 9 8 6 5 4 4 4 4 4 4 5 5 5 5 6 7 9
24 25 25 25 25 24 24 23 23 21 20 20 21 21 20 18 17 16 14 12 11 11 11 11 11 10 8 6 5 4 4 3 3 3 3 4 3 3 3 5 6 8
25 25 26 26 26 26 25 24 23 22 20 21 22 23 22 20 17 16 15 13 13 13 13 12 12 10 8 7 6 4 3 2 2 2 3 3 2 1 2 4 5 6
26 26 27 27 27 27 26 25 25 24 22 23 24 23 24 23 19 17 15 15 14 14 14 13 12 11 9 8 6 4 3 2 2 2 3 3 2 0 1 2 4 5
27 27 28 28 28 27 27 27 27 25 25 26 25 25 27 27 23 19 17 16 15 15 15 14 13 11 9 8 6 4 3 3 3 3 3 4 3 1 1 2 3 4
29 27 28 30 31 29 28 29 28 26 26 27 25 26 28 27 23 20 18 17 16 16 16 15 13 11 10 8 6 5 4 4 4 4 5 5 4 2 1 1 2 4
27 27 27 27 28 30 31 31 27 23 24 23 21 23 24 21 20 21 20 18 17 16 16 15 14 12 10 8 6 5 5 5 5 5 6 6 5 3 2 1 2 3
Wind_Direction
236 244 240 222 202 189 174 168 180 188 179 179 197 214 212 213 219 219 223 226 232 247 265 283 292 295 302 308 310 313 314 316 319 322 325 325 325 324 325 327 329 330
232 234 219 193 182 177 172 179 187 178 175 194 214 217 211 213 217 217 221 225 232 252 276 293 303 309 315 317 317 316 315 316 318 321 323 324 325 326 327 330 332 332
230 215 197 181 174 174 179 184 180 178 194 213 218 213 211 213 214 216 220 225 236 256 275 292 304 313 319 319 317 315 313 315 318 322 325 326 327 328 330 332 333 334
223 202 188 177 173 176 180 181 184 197 212 218 212 212 213 213 216 219 223 229 241 256 272 289 302 312 316 316 315 313 314 318 322 325 326 327 329 331 333 334 335 336
207 195 187 177 174 178 182 191 203 213 217 211 208 212 214 216 221 222 226 234 242 255 270 286 300 309 312 313 313 315 318 322 325 326 327 329 331 333 334 335 337 339
191 187 184 177 177 182 191 205 215 215 212 208 207 212 215 218 221 222 229 237 245 258 272 286 298 305 309 311 314 318 321 323 325 327 328 331 333 333 335 337 339 340
184 182 182 181 183 189 199 210 214 211 212 212 212 216 218 221 224 228 236 243 253 262 272 285 295 302 307 310 315 318 321 323 325 327 330 333 334 335 338 340 341 341
186 185 187 188 189 195 203 209 210 213 218 218 221 226 228 233 237 240 246 251 258 265 274 286 293 300 306 310 315 317 320 323 324 328 331 334 335 338 341 341 341 343
190 190 192 193 194 199 205 209 213 221 226 227 232 236 240 246 249 250 254 257 262 269 277 286 293 299 305 309 313 315 318 321 325 330 333 335 338 340 341 341 343 348
193 193 196 197 198 203 207 211 218 228 235 237 241 245 249 253 254 256 259 262 266 273 279 285 291 297 301 305 309 312 316 321 326 330 333 338 340 340 341 344 348 350
195 196 199 200 202 206 208 213 223 233 240 243 247 252 255 256 257 258 261 264 268 272 276 281 286 291 297 301 305 310 315 320 325 330 336 340 340 341 345 349 351 351
200 201 203 205 206 208 211 218 230 240 244 246 251 255 256 256 258 259 262 264 266 268 270 275 280 287 293 295 300 307 311 317 325 332 338 340 341 344 349 351 351 352
206 206 208 209 211 214 218 226 239 247 248 249 253 256 256 258 259 260 262 262 262 262 263 269 277 283 287 289 294 299 305 316 327 335 339 341 344 348 351 352 352 354
210 211 212 214 216 220 224 231 241 249 250 251 254 256 256 258 259 259 259 257 255 255 258 266 274 277 279 282 286 291 302 318 328 336 339 341 347 351 352 353 354 357
215 215 216 218 221 224 227 233 242 248 250 251 254 256 257 258 258 256 254 249 248 250 255 263 268 270 273 272 275 284 300 319 330 335 338 343 350 353 352 354 357 360
219 218 220 222 224 227 231 237 243 247 249 252 254 257 258 258 256 252 246 242 242 245 253 259 261 262 261 260 266 278 299 320 330 334 339 347 352 353 353 356 359 3
222 222 223 225 227 231 236 240 244 247 249 252 255 257 259 257 253 246 239 236 237 241 248 252 252 251 248 249 257 272 300 322 329 333 341 350 353 353 354 358 3 8
225 226 227 229 232 237 240 243 245 247 250 253 255 257 257 254 248 240 234 232 233 237 240 240 239 237 236 241 250 269 302 319 326 334 344 351 353 353 356 1 9 15
228 229 231 234 237 240 242 243 245 247 249 251 252 254 253 249 243 234 229 228 228 229 230 229 228 227 227 232 244 267 299 313 323 335 344 352 353 351 358 9 17 19
231 233 234 236 239 240 242 243 244 246 248 250 251 251 248 243 236 228 224 224 223 223 223 220 218 219 222 227 240 264 291 306 320 334 343 348 347 348 3 18 22 21
233 233 235 237 238 240 241 242 245 247 249 251 252 250 244 237 230 224 220 217 217 216 215 213 213 214 217 223 238 260 281 298 313 328 336 335 332 347 16 26 25 22
233 233 235 236 237 239 241 242 246 249 250 253 253 249 241 230 223 220 218 214 211 210 208 207 209 210 213 223 237 253 269 284 295 306 315 307 301 346 33 31 27 23
234 233 234 235 236 239 242 244 248 250 251 254 255 252 243 230 218 214 214 211 206 204 203 204 206 207 211 222 233 245 258 258 251 270 281 268 255 196 54 31 24 19
235 232 232 234 237 239 242 246 249 251 253 255 255 254 244 229 214 206 207 208 204 202 202 203 204 206 210 219 230 240 243 233 229 246 251 240 226 185 95 23 17 12
237 236 235 234 236 239 242 246 248 252 256 258 259 254 240 224 213 207 204 202 203 204 204 204 204 205 210 216 225 232 230 225 225 233 234 226 212 190 183 353 2 356
241 243 246 243 238 238 242 248 255 260 260 262 263 254 238 224 220 219 208 198 200 204 205 204 203 205 210 215 220 224 225 225 225 226 226 220 206 191 207 281 329 335
Height
3146 3148 3149 3150 3151 3153 3156 3158 3159 3160 3161 3162 3163 3164 3165 3165 3166 3167 3167 3167 3168 3168 3168 3168 3168 3168 3168 3168 3167 3167 3167 3166 3166 3165 3164 3163 3163 3162 3162 3161 3160 3159
3145 3147 3149 3149 3151 3153 3156 3157 3158 3159 3161 3161 3162 3163 3164 3164 3165 3166 3166 3166 3167 3167 3167 3167 3167 3167 3166 3166 3166 3166 3165 3165 3164 3163 3163 3162 3161 3161 3160 3159 3158 3157
3144 3146 3148 3149 3150 3153 3155 3156 3158 3159 3160 3160 3161 3162 3162 3163 3164 3165 3165 3165 3166 3166 3166 3166 3165 3165 3165 3165 3165 3164 3164 3163 3163 3162 3161 3160 3160 3159 3158 3157 3156 3155
3144 3145 3146 3148 3150 3153 3154 3156 3157 3158 3159 3159 3160 3161 3161 3162 3163 3164 3164 3164 3164 3165 3165 3164 3164 3164 3164 3164 3163 3163 3162 3162 3161 3160 3159 3159 3158 3158 3157 3156 3155 3154
3143 3144 3145 3147 3150 3152 3154 3155 3157 3157 3158 3158 3159 3160 3161 3161 3162 3163 3163 3163 3163 3163 3163 3163 3163 3163 3163 3162 3162 3161 3161 3160 3159 3158 3158 3157 3157 3156 3155 3155 3153 3152
3143 3144 3146 3148 3150 3152 3153 3155 3156 3156 3157 3157 3158 3159 3160 3160 3161 3161 3162 3162 3162 3162 3162 3162 3162 3161 3161 3161 3160 3160 3159 3158 3157 3157 3157 3156 3156 3155 3154 3153 3152 3151
3143 3144 3146 3148 3149 3151 3152 3154 3155 3155 3156 3156 3157 3158 3159 3159 3160 3160 3160 3160 3160 3160 3160 3160 3160 3160 3159 3159 3159 3158 3157 3157 3156 3156 3155 3155 3155 3154 3153 3152 3151 3150
3142 3143 3145 3147 3149 3150 3152 3153 3154 3154 3155 3156 3156 3157 3157 3158 3158 3159 3159 3159 3159 3159 3159 3159 3159 3158 3158 3157 3157 3156 3156 3155 3155 3155 3155 3154 3154 3153 3152 3151 3150 3149
3141 3143 3144 3146 3148 3149 3151 3152 3153 3153 3154 3154 3155 3156 3156 3157 3157 3158 3158 3158 3158 3157 3157 3157 3157 3157 3156 3156 3155 3155 3155 3154 3154 3154 3154 3153 3153 3152 3151 3150 3149 3148
3140 3141 3143 3145 3147 3148 3149 3150 3151 3151 3152 3153 3154 3154 3155 3155 3156 3156 3156 3156 3156 3155 3156 3155 3155 3155 3155 3154 3154 3154 3154 3154 3153 3153 3153 3153 3152 3151 3150 3149 3148 3147
3139 3140 3142 3143 3145 3147 3148 3149 3149 3150 3151 3151 3152 3153 3153 3153 3154 3154 3154 3154 3154 3154 3154 3154 3154 3154 3153 3153 3153 3153 3153 3153 3153 3153 3152 3152 3151 3150 3149 3148 3147 3146
3137 3139 3141 3142 3144 3145 3146 3147 3147 3148 3149 3149 3150 3150 3151 3151 3151 3151 3151 3152 3152 3152 3152 3152 3152 3152 3152 3152 3152 3152 3152 3152 3152 3152 3151 3151 3150 3149 3148 3147 3147 3146
3136 3138 3139 3141 3142 3143 3144 3145 3146 3146 3147 3147 3148 3148 3148 3149 3149 3149 3149 3150 3150 3151 3151 3151 3151 3151 3151 3151 3151 3151 3151 3151 3151 3151 3150 3150 3149 3148 3148 3147 3146 3145
3134 3136 3137 3139 3140 3141 3142 3143 3143 3144 3144 3145 3145 3146 3146 3146 3147 3147 3147 3148 3148 3149 3149 3149 3149 3149 3149 3150 3150 3150 3150 3150 3150 3150 3149 3149 3148 3148 3147 3146 3146 3145
3131 3133 3135 3136 3137 3138 3139 3140 3141 3142 3142 3143 3143 3144 3144 3144 3145 3145 3146 3146 3147 3147 3147 3147 3148 3148 3148 3149 3149 3149 3149 3149 3149 3148 3148 3148 3147 3147 3146 3146 3145 3144
3129 3131 3132 3133 3135 3136 3137 3138 3139 3139 3140 3140 3141 3141 3142 3142 3143 3143 3144 3144 3145 3145 3145 3146 3146 3147 3147 3148 3148 3148 3148 3148 3148 3147 3147 3147 3146 3146 3145 3144 3144 3143
3126 3128 3129 3131 3132 3133 3134 3135 3136 3136 3137 3138 3138 3139 3139 3140 3141 3141 3142 3142 3143 3143 3144 3144 3145 3145 3146 3147 3147 3147 3147 3147 3146 3146 3146 3146 3145 3145 3144 3143 3142 3141
3124 3125 3127 3128 3129 3130 3131 3132 3133 3134 3134 3135 3136 3136 3137 3138 3139 3139 3140 3140 3141 3141 3142 3142 3143 3144 3145 3145 3145 3146 3146 3145 3145 3145 3145 3144 3144 3143 3143 3142 3141 3140
3122 3123 3124 3125 3126 3127 3128 3129 3130 3131 3131 3132 3133 3134 3134 3135 3136 3137 3138 3138 3139 3139 3140 3141 3142 3143 3143 3144 3144 3144 3144 3144 3144 3143 3143 3143 3143 3143 3142 3141 3141 3139
3119 3121 3122 3123 3124 3125 3126 3127 3127 3128 3128 3129 3130 3131 3132 3133 3134 3135 3136 3136 3137 3138 3138 3139 3140 3141 3142 3142 3143 3143 3143 3143 3142 3142 3142 3142 3142 3142 3141 3141 3140 3139
3117 3118 3120 3121 3122 3123 3123 3124 3124 3125 3126 3127 3128 3128 3129 3130 3131 3133 3134 3134 3135 3136 3137 3138 3139 3140 3140 3141 3141 3141 3141 3141 3141 3141 3141 3141 3141 3141 3141 3140 3139 3138
3115 3116 3118 3119 3119 3120 3120 3121 3121 3122 3124 3125 3125 3125 3126 3127 3129 3130 3132 3132 3133 3134 3135 3136 3138 3138 3139 3139 3140 3140 3140 3140 3140 3140 3140 3140 3140 3140 3140 3139 3139 3138
3113 3114 3116 3116 3117 3117 3118 3118 3119 3120 3121 3122 3122 3123 3124 3125 3126 3128 3129 3130 3131 3133 3134 3135 3136 3137 3137 3138 3138 3138 3138 3139 3139 3139 3139 3140 3140 3139 3139 3139 3138 3137
3110 3112 3113 3113 3114 3115 3116 3116 3117 3118 3119 3119 3120 3120 3121 3122 3123 3125 3127 3128 3130 3131 3132 3133 3134 3135 3136 3136 3137 3137 3137 3137 3138 3138 3138 3139 3139 3138 3138 3138 3137 3137
3108 3110 3111 3111 3112 3113 3113 3114 3114 3116 3116 3116 3117 3118 3118 3119 3121 3123 3124 3126 3128 3129 3131 3132 3132 3133 3134 3135 3135 3135 3135 3136 3137 3137 3137 3138 3138 3137 3137 3137 3136 3136
3106 3107 3108 3108 3110 3110 3111 3111 3111 3113 3114 3114 3116 3117 3118 3119 3121 3123 3123 3124 3126 3128 3129 3130 3131 3131 3132 3133 3133 3133 3134 3135 3135 3136 3136 3137 3136 3136 3136 3135 3135 3135